Location: Pian di Sc�
(43.6333°N, 11.5500°E)
Time: 17:01:11
(UTC+00:00)

Cosmos 1607 - Pass Details

Date: 07 August 2020
Orbit: 911 x 991 km, 65.0° (Epoch: 17 September)

Event Time Altitude Azimuth Distance (km) Brightness Sun altitude
Rises 02:18:00 0° 322° (NW) 3,695 7.1 -17.5°
Reaches altitude 10° 02:20:38 10° 318° (NW) 2,750 6.4 -17.2°
Maximum altitude 02:26:52 53° 243° (WSW) 1,208 4.1 -16.3°
Drops below altitude 10° 02:33:06 10° 169° (S) 2,742 6.1 -15.5°
Sets 02:35:43 0° 165° (SSE) 3,683 6.8 -15.2°
